Weather History for St. Francis, KS

Change the Weather History Date:

Saturday, January 25, 2014

  Actual Average Record
Temperature  
Mean Temperature 44 °F -  
Max Temperature 58 °F 43 °F 59 °F (2013)
Min Temperature 30 °F 18 °F 23 °F (2013)
Degree Days  
Heating Degree Days 21    
Moisture  
Dew Point 21 °F    
Average Humidity 42    
Maximum Humidity 72    
Minimum Humidity 23    
Precipitation  
Precipitation 0.00 in - - ()
Sea Level Pressure  
Sea Level Pressure 30.02 in    
Wind  
Wind Speed 12 mph (West)    
Max Wind Speed 22 mph    
Max Gust Speed 29 mph    
Visibility 10 miles    
Events      
Averages and records for this station are not official NWS values.
T = Trace of Precipitation, MM = Missing Value Source: NWS Daily Summary

Daily Weather History Graph

Daily Weather History Graph

Search for Another Location

Airport:

Trip Planner

Search our weather history database for the weather conditions in past years. The results will help you decide how hot, cold, wet, or windy it might be!

Date:

Astronomy

Jan. 25, 2014 Rise Set
Actual Time 8:00 AM CST 5:58 PM CST
Civil Twilight 7:31 AM CST 6:27 PM CST
Nautical Twilight 6:59 AM CST 7:00 PM CST
Astronomical Twilight 6:27 AM CST 7:32 PM CST
Moon 2:35 AM CST (1/25) 1:00 PM CST (1/25)
Length of Visible Light 10h 55m
Length of Day
9h 57m
Waning Crescent, 34% of the Moon is Illuminated
Jan 25
Waning Crescent
Jan 30
New
Feb 6
First Quarter
Feb 14
Full
Feb 22
Last Quarter

Hourly Weather History & Observations

Time (CST) Temp. Windchill Dew Point Humidity Pressure Visibility Wind Dir Wind Speed Gust Speed Precip Events Conditions
12:15 AM 41.2 °F 34.5 °F 22.3 °F 47% 30.09 in 10.0 mi West 11.5 mph - N/A   Clear
12:35 AM 41.2 °F 34.1 °F 21.4 °F 45% 30.09 in 10.0 mi West 12.7 mph - N/A   Clear
12:55 AM 42.1 °F 35.2 °F 20.3 °F 42% 30.08 in 10.0 mi West 12.7 mph - N/A   Clear
1:15 AM 41.2 °F 34.1 °F 20.3 °F 43% 30.08 in 10.0 mi West 12.7 mph - N/A   Clear
1:35 AM 41.9 °F 35.4 °F 19.6 °F 41% 30.08 in 10.0 mi West 11.5 mph - N/A   Clear
1:55 AM 41.4 °F 34.7 °F 19.4 °F 41% 30.08 in 10.0 mi West 11.5 mph - N/A   Clear
2:15 AM 42.3 °F 35.1 °F 19.0 °F 39% 30.09 in 10.0 mi West 13.8 mph - N/A   Clear
2:35 AM 41.2 °F 34.5 °F 19.6 °F 42% 30.09 in 10.0 mi West 11.5 mph - N/A   Clear
2:55 AM 41.9 °F 34.3 °F 19.6 °F 41% 30.08 in 10.0 mi West 15.0 mph - N/A   Clear
3:15 AM 42.3 °F 34.4 °F 19.4 °F 40% 30.08 in 10.0 mi West 16.1 mph - N/A   Clear
3:35 AM 43.2 °F 35.9 °F 19.0 °F 38% 30.08 in 10.0 mi West 15.0 mph - N/A   Clear
3:55 AM 39.4 °F 32.7 °F 20.7 °F 47% 30.08 in 10.0 mi West 10.4 mph - N/A   Clear
4:15 AM 38.8 °F 32.1 °F 20.8 °F 48% 30.08 in 10.0 mi West 10.4 mph - N/A   Clear
4:35 AM 37.4 °F 29.8 °F 21.2 °F 52% 30.08 in 10.0 mi West 11.5 mph - N/A   Clear
4:55 AM 38.5 °F 31.6 °F 19.9 °F 47% 30.08 in 10.0 mi West 10.4 mph - N/A   Clear
5:15 AM 40.5 °F 33.2 °F 18.7 °F 42% 30.08 in 10.0 mi WNW 12.7 mph - N/A   Clear
5:35 AM 38.5 °F 30.3 °F 19.2 °F 46% 30.08 in 10.0 mi West 13.8 mph - N/A   Clear
5:55 AM 39.7 °F 32.3 °F 18.5 °F 42% 30.09 in 10.0 mi WNW 12.7 mph - N/A   Clear
6:15 AM 40.5 °F 33.6 °F 18.5 °F 41% 30.09 in 10.0 mi WNW 11.5 mph - N/A   Clear
6:35 AM 40.5 °F 32.8 °F 18.3 °F 41% 30.09 in 10.0 mi NW 13.8 mph - N/A   Clear
6:55 AM 41.0 °F 33.5 °F 18.0 °F 40% 30.09 in 10.0 mi WNW 13.8 mph - N/A   Clear
7:15 AM 38.7 °F 31.8 °F 18.3 °F 44% 30.10 in 10.0 mi West 10.4 mph - N/A   Clear
7:35 AM 37.6 °F 31.0 °F 18.3 °F 46% 30.10 in 10.0 mi WNW 9.2 mph - N/A   Clear
7:55 AM 36.3 °F 28.9 °F 18.5 °F 48% 30.10 in 10.0 mi West 10.4 mph - N/A   Clear
8:15 AM 36.0 °F 29.0 °F 18.3 °F 49% 30.10 in 10.0 mi WNW 9.2 mph - N/A   Clear
8:35 AM 37.0 °F 31.0 °F 18.5 °F 47% 30.11 in 10.0 mi West 8.1 mph - N/A   Clear
8:55 AM 37.6 °F 31.6 °F 18.9 °F 47% 30.11 in 10.0 mi West 8.1 mph - N/A   Clear
9:15 AM 39.4 °F 32.7 °F 19.2 °F 44% 30.11 in 10.0 mi West 10.4 mph - N/A   Clear
9:35 AM 43.3 °F 37.2 °F 18.5 °F 37% 30.12 in 10.0 mi WNW 11.5 mph - N/A   Clear
9:55 AM 45.9 °F 40.0 °F 19.4 °F 35% 30.12 in 10.0 mi WNW 12.7 mph - N/A   Clear
10:15 AM 48.4 °F - 18.5 °F 31% 30.12 in 10.0 mi NW 12.7 mph - N/A   Clear
10:35 AM 50.2 °F - 18.7 °F 29% 30.12 in 10.0 mi NW 15.0 mph 21.9 mph N/A   Clear
10:55 AM 52.2 °F - 22.3 °F 31% 30.12 in 10.0 mi NNW 20.7 mph 27.6 mph N/A   Clear
11:15 AM 53.1 °F - 23.2 °F 31% 30.12 in 10.0 mi NNW 20.7 mph 28.8 mph N/A   Clear
11:35 AM 53.6 °F - 22.8 °F 30% 30.12 in 10.0 mi NNW 21.9 mph 28.8 mph N/A   Clear
11:55 AM 54.0 °F - 22.3 °F 29% 30.10 in 10.0 mi NW 19.6 mph 26.5 mph N/A   Clear
12:15 PM 54.9 °F - 22.8 °F 29% 30.10 in 10.0 mi NNW 17.3 mph 28.8 mph N/A   Clear
12:35 PM 55.2 °F - 22.3 °F 28% 30.08 in 10.0 mi NNW 19.6 mph 27.6 mph N/A   Clear
12:55 PM 55.4 °F - 22.1 °F 27% 30.06 in 10.0 mi NNW 18.4 mph - N/A   Clear
1:15 PM 56.1 °F - 22.1 °F 27% 30.04 in 10.0 mi NNW 17.3 mph 21.9 mph N/A   Clear
1:35 PM 56.7 °F - 21.9 °F 26% 30.03 in 10.0 mi NW 13.8 mph 20.7 mph N/A   Clear
1:55 PM 57.2 °F - 22.1 °F 26% 30.02 in 10.0 mi NW 12.7 mph 19.6 mph N/A   Clear
2:15 PM 57.4 °F - 21.7 °F 25% 30.00 in 10.0 mi NNW 10.4 mph - N/A   Clear
2:35 PM 57.7 °F - 21.6 °F 25% 29.98 in 10.0 mi NNW 12.7 mph 16.1 mph N/A   Clear
2:55 PM 57.7 °F - 21.6 °F 25% 29.98 in 10.0 mi NNW 10.4 mph - N/A   Clear
3:15 PM 58.3 °F - 21.2 °F 24% 29.97 in 10.0 mi WNW 10.4 mph 16.1 mph N/A   Clear
3:35 PM 58.5 °F - 21.0 °F 24% 29.96 in 10.0 mi WNW 8.1 mph - N/A   Clear
3:55 PM 58.5 °F - 20.8 °F 23% 29.95 in 10.0 mi West 11.5 mph - N/A   Clear
4:15 PM 58.1 °F - 20.1 °F 23% 29.94 in 10.0 mi WSW 12.7 mph 17.3 mph N/A   Clear
4:35 PM 57.6 °F - 19.9 °F 23% 29.94 in 10.0 mi West 10.4 mph - N/A   Clear
4:55 PM 57.2 °F - 20.1 °F 24% 29.93 in 10.0 mi WSW 11.5 mph - N/A   Clear
5:15 PM 55.6 °F - 20.8 °F 26% 29.92 in 10.0 mi WSW 9.2 mph - N/A   Clear
5:35 PM 53.2 °F - 21.6 °F 29% 29.92 in 10.0 mi SW 9.2 mph - N/A   Clear
5:55 PM 47.7 °F - 22.1 °F 37% 29.91 in 10.0 mi SSW 9.2 mph - N/A   Clear
6:15 PM 44.8 °F 39.4 °F 23.0 °F 42% 29.90 in 10.0 mi SSW 10.4 mph - N/A   Clear
6:35 PM 41.2 °F 35.0 °F 23.0 °F 48% 29.90 in 10.0 mi SSW 10.4 mph - N/A   Clear
6:55 PM 40.5 °F 34.1 °F 23.2 °F 50% 29.89 in 10.0 mi SSW 10.4 mph - N/A   Clear
7:15 PM 38.7 °F 32.9 °F 23.4 °F 54% 29.89 in 10.0 mi SSW 8.1 mph - N/A   Clear
7:35 PM 37.0 °F 30.4 °F 23.5 °F 58% 29.88 in 10.0 mi SW 9.2 mph - N/A   Clear
7:55 PM 35.8 °F 28.8 °F 23.4 °F 61% 29.88 in 10.0 mi SW 9.2 mph - N/A   Clear
8:15 PM 36.5 °F 29.2 °F 23.9 °F 60% 29.88 in 10.0 mi SW 10.4 mph - N/A   Clear
9:15 PM 34.0 °F 26.0 °F 23.9 °F 67% 29.88 in 10.0 mi SW 10.4 mph - N/A   Clear
9:35 PM 32.2 °F 23.8 °F 23.2 °F 69% 29.87 in 10.0 mi SW 10.4 mph - N/A   Clear
9:55 PM 31.6 °F 23.7 °F 23.0 °F 70% 29.87 in 10.0 mi SW 9.2 mph - N/A   Clear
10:15 PM 31.6 °F 23.7 °F 23.0 °F 70% 29.86 in 10.0 mi SW 9.2 mph - N/A   Clear
10:35 PM 30.9 °F 22.2 °F 23.0 °F 72% 29.86 in 10.0 mi SW 10.4 mph - N/A   Clear
10:55 PM 32.0 °F 23.6 °F 23.9 °F 72% 29.85 in 10.0 mi SW 10.4 mph - N/A   Clear
11:15 PM 33.1 °F 24.9 °F 24.3 °F 70% 29.85 in 10.0 mi SW 10.4 mph - N/A   Clear
11:35 PM 34.0 °F 27.2 °F 24.6 °F 69% 29.85 in 10.0 mi WSW 8.1 mph - N/A   Clear
11:55 PM 34.3 °F 27.0 °F 24.6 °F 68% 29.85 in 10.0 mi WSW 9.2 mph - N/A   Clear